Tracking 30995 objects as of 5-Jul-2025
HD Live streaming from Space Station
objects crossing your sky now

SL-12 R/B(2)

Track SL-12 R/B(2) now!


NORAD ID: 23429
Int'l Code: 1994-082D
Perigee: 35,525.5 km
Apogee: 35,771.1 km
Inclination: 14.6 °
Period: 1,428.7 minutes
Semi major axis: 42019 km
RCS: 2.5118 m2 (large)
Launch date: December 16, 1994
Source: Commonwealth of Independent States (former USSR) (CIS)
Launch site: TYURATAM MISSILE AND SPACE COMPLEX (TTMTR)

Note: This is a ROCKET BODY
Your satellite tracking list
Your tracking list is empty




NASA's NSSDC Master Catalog

Two Line Element Set (TLE):
1 23429U 94082D   25186.34225072 -.00000227  00000-0  00000-0 0  9992
2 23429  14.6112 356.8031 0029226 132.3884 235.6830  1.00792760112400
Source of the keplerian elements: AFSPC